Time,TemperatureF,DewpointF,PressureIn,WindDirection,WindDirectionDegrees,WindSpeedMPH,WindSpeedGustMPH,Humidity,HourlyPrecipIn,Conditions,Clouds,dailyrainin,SolarRadiationWatts/m^2,SoftwareType,DateUTC
2013-10-05 00:14:00,59.6,58.0,30.11,East,98,0.0,0.0,94,0.00,,,0.00,0,weatherlink.com 1.10,2013-10-05 04:14:00,
2013-10-05 00:29:00,59.3,58.0,30.11,East,98,0.0,0.0,94,0.00,,,0.00,0,weatherlink.com 1.10,2013-10-05 04:29:00,
2013-10-05 00:44:00,59.0,57.0,30.11,East,98,0.0,0.0,94,0.00,,,0.00,0,weatherlink.com 1.10,2013-10-05 04:44:00,
2013-10-05 00:59:00,58.9,58.0,30.11,East,98,0.0,0.0,95,0.00,,,0.00,0,weatherlink.com 1.10,2013-10-05 04:59:00,
2013-10-05 01:15:00,58.7,57.0,30.10,East,98,0.0,1.0,95,0.00,,,0.00,0,weatherlink.com 1.10,2013-10-05 05:15:00,
2013-10-05 01:30:00,58.4,57.0,30.10,East,98,0.0,0.0,94,0.00,,,0.00,0,weatherlink.com 1.10,2013-10-05 05:30:00,
2013-10-05 01:45:00,58.4,57.0,30.10,East,98,0.0,0.0,95,0.00,,,0.00,0,weatherlink.com 1.10,2013-10-05 05:45:00,
2013-10-05 02:00:00,58.1,57.0,30.10,East,98,0.0,0.0,95,0.00,,,0.00,0,weatherlink.com 1.10,2013-10-05 06:00:00,
2013-10-05 02:15:00,58.2,57.0,30.10,East,98,0.0,0.0,95,0.00,,,0.00,0,weatherlink.com 1.10,2013-10-05 06:15:00,
2013-10-05 02:30:00,57.6,56.0,30.10,East,98,0.0,0.0,95,0.00,,,0.00,0,weatherlink.com 1.10,2013-10-05 06:30:00,
2013-10-05 02:45:00,58.6,58.0,30.10,East,98,0.0,0.0,96,0.00,,,0.00,0,weatherlink.com 1.10,2013-10-05 06:45:00,
2013-10-05 03:00:00,59.2,58.0,30.10,East,98,0.0,0.0,96,0.00,,,0.00,0,weatherlink.com 1.10,2013-10-05 07:00:00,
2013-10-05 03:15:00,59.6,59.0,30.10,East,98,0.0,0.0,96,0.00,,,0.00,0,weatherlink.com 1.10,2013-10-05 07:15:00,
2013-10-05 03:30:00,59.6,59.0,30.09,East,98,0.0,0.0,96,0.00,,,0.00,0,weatherlink.com 1.10,2013-10-05 07:30:00,
2013-10-05 03:45:00,59.5,58.0,30.09,East,98,0.0,1.0,95,0.00,,,0.00,0,weatherlink.com 1.10,2013-10-05 07:45:00,
2013-10-05 04:00:00,59.5,58.0,30.09,East,98,0.0,0.0,96,0.00,,,0.00,0,weatherlink.com 1.10,2013-10-05 08:00:00,
2013-10-05 04:15:00,59.6,59.0,30.09,East,98,0.0,0.0,96,0.00,,,0.00,0,weatherlink.com 1.10,2013-10-05 08:15:00,
2013-10-05 04:30:00,59.9,59.0,30.09,East,98,0.0,0.0,96,0.00,,,0.00,0,weatherlink.com 1.10,2013-10-05 08:30:00,
2013-10-05 04:45:00,59.5,58.0,30.09,East,98,1.0,1.0,96,0.00,,,0.00,0,weatherlink.com 1.10,2013-10-05 08:45:00,
2013-10-05 05:00:00,59.1,58.0,30.09,East,98,1.0,1.0,96,0.00,,,0.00,0,weatherlink.com 1.10,2013-10-05 09:00:00,
2013-10-05 05:15:00,59.0,58.0,30.10,East,98,0.0,0.0,96,0.00,,,0.00,0,weatherlink.com 1.10,2013-10-05 09:15:00,
2013-10-05 05:30:00,59.4,58.0,30.10,East,98,0.0,0.0,96,0.00,,,0.00,0,weatherlink.com 1.10,2013-10-05 09:30:00,
2013-10-05 05:45:00,59.1,58.0,30.11,East,98,0.0,0.0,96,0.00,,,0.00,0,weatherlink.com 1.10,2013-10-05 09:45:00,
2013-10-05 06:00:00,58.6,58.0,30.11,East,98,0.0,0.0,96,0.00,,,0.00,0,weatherlink.com 1.10,2013-10-05 10:00:00,
2013-10-05 06:15:00,58.3,57.0,30.11,East,98,0.0,1.0,96,0.00,,,0.00,0,weatherlink.com 1.10,2013-10-05 10:15:00,
2013-10-05 06:30:00,58.3,57.0,30.11,East,98,0.0,0.0,96,0.00,,,0.00,0,weatherlink.com 1.10,2013-10-05 10:30:00,
2013-10-05 06:45:00,58.6,58.0,30.11,East,98,0.0,0.0,96,0.00,,,0.00,0,weatherlink.com 1.10,2013-10-05 10:45:00,
2013-10-05 07:00:00,58.6,58.0,30.11,East,98,0.0,0.0,96,0.00,,,0.00,0,weatherlink.com 1.10,2013-10-05 11:00:00,
2013-10-05 07:15:00,58.5,57.0,30.12,East,101,2.0,2.0,96,0.00,,,0.00,0,weatherlink.com 1.10,2013-10-05 11:15:00,
2013-10-05 07:30:00,58.1,57.0,30.11,ESE,108,0.0,3.0,96,0.00,,,0.00,0,weatherlink.com 1.10,2013-10-05 11:30:00,
2013-10-05 07:45:00,58.0,57.0,30.12,ESE,108,0.0,1.0,96,0.00,,,0.00,5,weatherlink.com 1.10,2013-10-05 11:45:00,
2013-10-05 08:00:00,57.9,57.0,30.12,South,175,0.0,1.0,96,0.00,,,0.00,12,weatherlink.com 1.10,2013-10-05 12:00:00,
2013-10-05 08:15:00,57.9,57.0,30.12,SE,133,0.0,1.0,96,0.00,,,0.00,33,weatherlink.com 1.10,2013-10-05 12:15:00,
2013-10-05 08:30:00,58.4,57.0,30.12,SW,236,0.0,0.0,96,0.00,,,0.00,60,weatherlink.com 1.10,2013-10-05 12:30:00,
2013-10-05 08:45:00,59.0,58.0,30.12,SW,236,0.0,0.0,97,0.00,,,0.00,79,weatherlink.com 1.10,2013-10-05 12:45:00,
2013-10-05 09:15:00,59.7,59.0,30.12,West,275,0.0,0.0,97,0.00,,,0.00,97,weatherlink.com 1.10,2013-10-05 13:15:00,
2013-10-05 09:30:00,60.3,60.0,30.12,West,274,0.0,1.0,97,0.00,,,0.00,132,weatherlink.com 1.10,2013-10-05 13:30:00,
2013-10-05 09:45:00,61.6,61.0,30.11,West,273,0.0,1.0,97,0.00,,,0.00,225,weatherlink.com 1.10,2013-10-05 13:45:00,
2013-10-05 10:00:00,61.8,61.0,30.12,SW,235,0.0,2.0,97,0.00,,,0.00,221,weatherlink.com 1.10,2013-10-05 14:00:00,
2013-10-05 10:15:00,62.4,62.0,30.11,NNW,336,1.0,2.0,97,0.01,,,0.01,250,weatherlink.com 1.10,2013-10-05 14:15:00,
2013-10-05 10:30:00,63.7,63.0,30.11,NNW,331,0.0,1.0,97,0.01,,,0.01,469,weatherlink.com 1.10,2013-10-05 14:30:00,
2013-10-05 10:45:00,65.1,64.0,30.11,SW,222,2.0,3.0,97,0.01,,,0.01,512,weatherlink.com 1.10,2013-10-05 14:45:00,
2013-10-05 11:01:00,66.5,65.0,30.11,West,265,0.0,2.0,95,0.01,,,0.01,550,weatherlink.com 1.10,2013-10-05 15:01:00,
2013-10-05 11:16:00,69.0,67.0,30.10,East,88,3.0,3.0,92,0.00,,,0.01,584,weatherlink.com 1.10,2013-10-05 15:16:00,
2013-10-05 11:31:00,71.1,67.0,30.10,North,5,1.0,4.0,87,0.00,,,0.01,610,weatherlink.com 1.10,2013-10-05 15:31:00,
2013-10-05 11:46:00,73.1,67.0,30.10,North,355,0.0,3.0,81,0.00,,,0.01,638,weatherlink.com 1.10,2013-10-05 15:46:00,
2013-10-05 12:01:00,74.4,66.0,30.09,NNW,344,0.0,4.0,76,0.00,,,0.01,663,weatherlink.com 1.10,2013-10-05 16:01:00,
2013-10-05 12:16:00,75.5,67.0,30.09,West,278,4.0,4.0,75,0.00,,,0.01,680,weatherlink.com 1.10,2013-10-05 16:16:00,
2013-10-05 12:31:00,76.6,66.0,30.09,East,97,0.0,5.0,69,0.00,,,0.01,700,weatherlink.com 1.10,2013-10-05 16:31:00,
2013-10-05 12:46:00,77.6,66.0,30.08,West,265,1.0,3.0,68,0.00,,,0.01,708,weatherlink.com 1.10,2013-10-05 16:46:00,
2013-10-05 13:01:00,79.2,67.0,30.08,South,177,5.0,5.0,66,0.00,,,0.01,717,weatherlink.com 1.10,2013-10-05 17:01:00,
2013-10-05 13:16:00,80.2,67.0,30.07,ENE,60,0.0,5.0,65,0.00,,,0.01,724,weatherlink.com 1.10,2013-10-05 17:16:00,
2013-10-05 13:31:00,80.9,63.0,30.06,South,173,8.0,8.0,54,0.00,,,0.01,731,weatherlink.com 1.10,2013-10-05 17:31:00,
2013-10-05 13:46:00,80.5,63.0,30.05,NE,50,3.0,9.0,55,0.00,,,0.01,728,weatherlink.com 1.10,2013-10-05 17:46:00,
2013-10-05 14:01:00,81.0,64.0,30.05,SSE,152,3.0,5.0,57,0.00,,,0.01,721,weatherlink.com 1.10,2013-10-05 18:01:00,
2013-10-05 14:16:00,81.8,65.0,30.04,South,182,4.0,10.0,56,0.00,,,0.01,717,weatherlink.com 1.10,2013-10-05 18:16:00,
2013-10-05 14:31:00,81.4,64.0,30.04,SE,145,3.0,7.0,56,0.00,,,0.01,745,weatherlink.com 1.10,2013-10-05 18:31:00,
2013-10-05 14:46:00,80.4,65.0,30.03,South,188,7.0,9.0,60,0.00,,,0.01,677,weatherlink.com 1.10,2013-10-05 18:46:00,
2013-10-05 15:01:00,81.4,65.0,30.03,SE,132,2.0,5.0,57,0.00,,,0.01,643,weatherlink.com 1.10,2013-10-05 19:01:00,
2013-10-05 15:16:00,81.0,65.0,30.02,SSE,162,6.0,8.0,59,0.00,,,0.01,624,weatherlink.com 1.10,2013-10-05 19:16:00,
2013-10-05 15:31:00,81.8,65.0,30.02,South,187,4.0,10.0,57,0.00,,,0.01,635,weatherlink.com 1.10,2013-10-05 19:31:00,
2013-10-05 15:46:00,81.9,66.0,30.02,South,181,5.0,8.0,58,0.00,,,0.01,566,weatherlink.com 1.10,2013-10-05 19:46:00,
2013-10-05 16:02:00,81.2,64.0,30.01,SSE,152,4.0,9.0,57,0.00,,,0.01,531,weatherlink.com 1.10,2013-10-05 20:02:00,
2013-10-05 16:17:00,81.4,66.0,30.01,SSE,164,2.0,8.0,60,0.00,,,0.01,483,weatherlink.com 1.10,2013-10-05 20:17:00,
2013-10-05 16:32:00,80.9,64.0,30.01,SSW,198,5.0,6.0,57,0.00,,,0.01,439,weatherlink.com 1.10,2013-10-05 20:32:00,
2013-10-05 16:47:00,80.9,65.0,30.00,SSE,154,4.0,5.0,59,0.00,,,0.01,408,weatherlink.com 1.10,2013-10-05 20:47:00,
2013-10-05 17:02:00,81.2,65.0,30.00,SSE,165,2.0,5.0,59,0.00,,,0.01,373,weatherlink.com 1.10,2013-10-05 21:02:00,
2013-10-05 17:17:00,80.7,64.0,29.99,SE,133,2.0,7.0,57,0.00,,,0.01,313,weatherlink.com 1.10,2013-10-05 21:17:00,
2013-10-05 17:32:00,80.2,64.0,29.99,SSE,154,3.0,6.0,59,0.00,,,0.01,265,weatherlink.com 1.10,2013-10-05 21:32:00,
2013-10-05 17:47:00,79.7,64.0,29.99,South,180,2.0,6.0,59,0.00,,,0.01,211,weatherlink.com 1.10,2013-10-05 21:47:00,
2013-10-05 18:02:00,79.5,65.0,29.99,South,171,2.0,4.0,62,0.00,,,0.01,158,weatherlink.com 1.10,2013-10-05 22:02:00,
2013-10-05 18:17:00,78.5,64.0,29.99,SSE,152,2.0,12.0,62,0.00,,,0.01,104,weatherlink.com 1.10,2013-10-05 22:17:00,
2013-10-05 18:32:00,77.7,64.0,29.99,ESE,116,4.0,8.0,62,0.00,,,0.01,58,weatherlink.com 1.10,2013-10-05 22:32:00,
2013-10-05 18:47:00,76.1,63.0,29.99,SE,133,1.0,4.0,65,0.00,,,0.01,18,weatherlink.com 1.10,2013-10-05 22:47:00,
2013-10-05 19:02:00,74.4,64.0,30.00,ESE,109,0.0,4.0,69,0.00,,,0.01,11,weatherlink.com 1.10,2013-10-05 23:02:00,
2013-10-05 19:17:00,73.2,64.0,30.00,SSE,157,0.0,2.0,73,0.00,,,0.01,0,weatherlink.com 1.10,2013-10-05 23:17:00,
2013-10-05 19:32:00,70.9,64.0,30.01,SSE,157,0.0,2.0,78,0.00,,,0.01,0,weatherlink.com 1.10,2013-10-05 23:32:00,
2013-10-05 19:47:00,68.9,63.0,30.01,East,94,0.0,1.0,81,0.00,,,0.01,0,weatherlink.com 1.10,2013-10-05 23:47:00,
2013-10-05 20:02:00,67.6,63.0,30.02,East,94,0.0,0.0,84,0.00,,,0.01,0,weatherlink.com 1.10,2013-10-06 00:02:00,
2013-10-05 20:17:00,66.8,63.0,30.02,ESE,103,2.0,4.0,86,0.00,,,0.01,0,weatherlink.com 1.10,2013-10-06 00:17:00,
2013-10-05 20:32:00,66.3,62.0,30.02,ESE,106,0.0,2.0,87,0.00,,,0.01,0,weatherlink.com 1.10,2013-10-06 00:32:00,
2013-10-05 20:47:00,65.4,62.0,30.03,ESE,109,0.0,2.0,89,0.00,,,0.01,0,weatherlink.com 1.10,2013-10-06 00:47:00,
2013-10-05 21:02:00,65.0,62.0,30.03,ESE,123,0.0,3.0,90,0.00,,,0.01,0,weatherlink.com 1.10,2013-10-06 01:02:00,
2013-10-05 21:17:00,64.7,62.0,30.04,ESE,123,0.0,0.0,90,0.00,,,0.01,0,weatherlink.com 1.10,2013-10-06 01:17:00,
2013-10-05 21:32:00,64.4,62.0,30.04,ESE,123,0.0,2.0,91,0.00,,,0.01,0,weatherlink.com 1.10,2013-10-06 01:32:00,
2013-10-05 21:47:00,63.2,61.0,30.04,ESE,123,0.0,0.0,91,0.00,,,0.01,0,weatherlink.com 1.10,2013-10-06 01:47:00,
2013-10-05 22:02:00,63.1,61.0,30.04,NE,46,0.0,0.0,92,0.00,,,0.01,0,weatherlink.com 1.10,2013-10-06 02:02:00,
2013-10-05 22:17:00,62.1,60.0,30.04,NE,46,0.0,0.0,92,0.00,,,0.01,0,weatherlink.com 1.10,2013-10-06 02:17:00,
2013-10-05 22:32:00,61.7,60.0,30.04,NE,46,0.0,0.0,93,0.00,,,0.01,0,weatherlink.com 1.10,2013-10-06 02:32:00,
2013-10-05 22:47:00,61.1,59.0,30.03,NE,46,0.0,0.0,92,0.00,,,0.01,0,weatherlink.com 1.10,2013-10-06 02:47:00,
2013-10-05 23:02:00,60.7,59.0,30.03,NE,46,0.0,0.0,93,0.00,,,0.01,0,weatherlink.com 1.10,2013-10-06 03:02:00,
2013-10-05 23:17:00,60.5,59.0,30.03,NE,46,0.0,0.0,93,0.00,,,0.01,0,weatherlink.com 1.10,2013-10-06 03:17:00,
2013-10-05 23:32:00,60.1,58.0,30.03,NE,46,0.0,0.0,94,0.00,,,0.01,0,weatherlink.com 1.10,2013-10-06 03:32:00,
2013-10-05 23:47:00,59.3,57.0,30.03,NE,46,0.0,0.0,93,0.00,,,0.01,0,weatherlink.com 1.10,2013-10-06 03:47:00,